User: anonymous
Location: Ciudad Delicias
(28.2170°N, 105.4670°W)
Time: 17:25:52
(UTC-07:00)
Language:

ETS-7 - Orbit

View from above orbital plane
View from above orbital plane
View from above satellite
View from above satellite

Ground track
Ground track

The orbit data is extracted from the following two-line orbital elements,

1 25064U 97074B   14265.44359242  .00019840  00000-0  32340-3 0  2591
2 25064 034.9635 350.7057 0003307 249.4938 164.3314 15.51658443936279
Epoch (UTC): 22 September 2014 10:38:46
Eccentricity: 0.0003307
inclination: 34.9635°
perigee height: 409 km
apogee height: 414 km
right ascension of ascending node: 350.7057°
argument of perigee: 249.4938°
revolutions per day: 15.51658443
mean anomaly at epoch: 164.3314°
orbit number at epoch: 93627

The dashed part of the orbit path shows where the satellite is in the earth's shadow,  

DLR